Regional Weather Roundup
Issued by NWS

Home | Current Version | Previous Version | Text Only | Print | Product List | Glossary On
Versions: 1 2 3 4 5 6 7 8 9 10 11 12 13 14 15 16 17 18 19 20 21 22 23 24 25 26 27 28 29 30 31 32 33 34 35 36 37 38 39 40 41 42 43 44 45 46 47 48 49 50
000
ASUS45 KPSR 301610
RWRAZ

ARIZONA REGIONAL HOURLY WEATHER ROUNDUP
NATIONAL WEATHER SERVICE PHOENIX AZ
900 AM MST TUE SEP 30 2014

NOTE: FAIR INDICATES FEW OR NO CLOUDS BELOW 12,000 FEET WITH NO
SIGNIFICANT WEATHER AND/OR OBSTRUCTIONS TO VISIBILITY.

AZZ001>003-036-301700-
NORTHWEST ARIZONA

CITY           SKY/WX    TMP DP  RH WIND       PRES   REMARKS
BULLHEAD CITY  SUNNY     73  39  29 CALM      29.89R
KINGMAN        NOT AVBL
$$

AZZ004>008-015-016-018-301700-
NORTH CENTRAL ARIZONA

CITY           SKY/WX    TMP DP  RH WIND       PRES   REMARKS
GRAND CANYON   SUNNY     55  38  52 CALM      30.12S
PRESCOTT       SUNNY     58  40  51 N3        30.06S
FLAGSTAFF      SUNNY     55  37  50 CALM      30.13S
PAYSON         SUNNY     63  36  36 CALM      30.08R
$$

AZZ009>014-017-301700-
NORTHEAST ARIZONA

CITY           SKY/WX    TMP DP  RH WIND       PRES   REMARKS
WINSLOW        SUNNY     58  44  60 CALM      30.05F
SAINT JOHNS    SUNNY     59  34  39 N5        30.07S
WINDOW ROCK    SUNNY     53  37  54 CALM      30.11
SHOW LOW       SUNNY     55  32  41 SW6       30.13S
$$

AZZ023-301700-
GREATER PHOENIX AREA

CITY           SKY/WX    TMP DP  RH WIND       PRES   REMARKS
PHOENIX        SUNNY     74  48  39 E10       29.87R
BUCKEYE          N/A     68  54  60 S3        29.88S
GLENDALE       SUNNY     72  54  53 NE5       29.89S
LUKE AFB       SUNNY     71  52  49 E5        29.87S
DEER VALLEY    SUNNY     74  46  36 N3        29.88S
SCOTTSDALE     SUNNY     71  49  45 CALM      29.90R
MESA-GATEWAY   SUNNY     70  52  52 E6        29.90S
CHANDLER       SUNNY     70  52  52 CALM      29.89R
$$

AZZ027-028-301700-
SOUTHWEST MARICOPA COUNTY AND PINAL COUNTY

CITY           SKY/WX    TMP DP  RH WIND       PRES   REMARKS
CASA GRANDE    SUNNY     70  45  40 CALM      29.90R
GILA BEND      SUNNY     73  52  46 E1        29.89R
$$

AZZ503-504-507>509-301700-
SOUTHEAST ARIZONA

CITY           SKY/WX    TMP DP  RH WIND       PRES   REMARKS
TUCSON         SUNNY     70  48  45 S6        29.96S
DAVIS-MONTHAN  SUNNY     72  46  39 SE5       29.95S
RYAN FIELD       N/A     72  43  35 E3        29.95F
NOGALES        SUNNY     67  53  61 CALM      30.00S
SIERRA VISTA   MOSUNNY   66  54  63 E6        30.04S
DOUGLAS        SUNNY     69  52  54 CALM      30.02S
SAFFORD        SUNNY     68  39  34 CALM      29.96S
$$

AZZ020-021-025-026-031-301700-
SOUTHWEST ARIZONA

CITY           SKY/WX    TMP DP  RH WIND       PRES   REMARKS
YUMA           MOSUNNY   79  44  28 CALM      29.83S
$$

CAZ031-033-041-043-047-048-061-301700-
SOUTHERN CALIFORNIA

CITY           SKY/WX    TMP DP  RH WIND       PRES   REMARKS
DOWNTOWN L.A.  SUNNY     72  55  55 E3        29.86S
L.A. AIRPORT   MOSUNNY   69  57  65 SE5       29.87S
SAN DIEGO      SUNNY     71  58  63 CALM      29.88R
BURBANK        SUNNY     70  48  45 CALM      29.88R
ONTARIO        SUNNY     73  50  44 CALM      29.89S
RIVERSIDE      SUNNY     70  52  52 CALM      29.89S
PALM SPRINGS   SUNNY     80  40  23 NW6       29.87R
EL CENTRO NAS  SUNNY     76  42  29 W6        29.83R
IMPERIAL       SUNNY     75  46  35 W6        29.82S
BLYTHE         SUNNY     74  45  35 NE3       29.85R
NEEDLES        SUNNY     76  40  27 CALM      29.88R
$$

NVZ020-UTZ003-301700-
SOUTHERN NEVADA-UTAH

CITY           SKY/WX    TMP DP  RH WIND       PRES   REMARKS
LAS VEGAS      MOSUNNY   73  38  27 S3        29.90S
SALT LAKE CITY PTSUNNY   56  48  74 SE6       29.98S
$$

NMZ009-TXZ055-301700-
NEW MEXICO-WEST TEXAS

CITY           SKY/WX    TMP DP  RH WIND       PRES   REMARKS
ALBUQUERQUE    SUNNY     56  36  47 CALM      30.06S
EL PASO        MOSUNNY   77  49  37 W9        29.97S
$$


........................KEY........................
SKY/WX - SKY CONDITION/WEATHER
TMP    - TEMPERATURE IN FAHRENHEIT
DP     - DEW POINT IN FAHRENHEIT
RH     - RELATIVE HUMIDITY IN PERCENT
WIND   - DIRECTION AND SPEED IN MILES PER HOUR (MPH)
VRB    - VARIABLE WIND DIRECTION
PRES   - MEAN SEA LEVEL PRESSURE IN INCHES OF MERCURY
         F - FALLING PRESSURE   R - RISING PRESSURE
         S - STEADY PRESSURE
VSB    - VISIBILITY IN MILES
HX     - HEAT INDEX IN FAHRENHEIT
WCI    - WIND CHILL INDEX IN FAHRENHEIT
TC     - TEMPERATURE IN CELSIUS WHICH IS ALSO KNOWN AS
         TEMPERATURE IN CENTIGRADE
AFB    - AIR FORCE BASE
         LUKE AFB IS LUKE AIR FORCE BASE
         DAVIS-MONTHAN IS DAVIS-MONTHAN AIR FORCE BASE
NAS    - NAVAL AIR STATION
         EL CENTRO NAS IS EL CENTRO NAVAL AIR STATION
N/A    - NOT AVAILABLE


USA.gov is the U.S. government's official web portal to all federal, state and local government web resources and services.